This demonstration page uses our WeatherBlox Daily Observations layout. Learn more.

Left ArrowRight Arrow

38.83388, -104.82136

Hourly Observations for April 15, 2017

Temp ( °F °C ) Dew Point ( °F °C ) Humidity (%) Winds ( mph kmh ) Pressure ( in mb ) Visibility ( mi km ) Precip ( " mm )
12:58 am 00:58 Clear 57 13.8 3 -16.2 11 11 WNW 8 13 29.37 995 10 16 0.00 0.00
1:58 am 01:58 Clear 54 12.1 5 -15.1 14 14 WNW 10 17 29.40 996 10 16 0.00 0.00
2:58 am 02:58 Clear 53 11.9 6 -14.7 14 14 WNW 8 13 29.40 996 10 16 0.00 0.00
3:58 am 03:58 Clear 53 11.4 9 -12.6 17 17 WNW 8 13 29.41 996 10 16 0.00 0.00
4:58 am 04:58 Clear 49 9.7 10 -12 20 20 NNW 8 13 29.43 997 10 16 0.00 0.00
5:58 am 05:58 Clear 49 9.6 15 -9.2 26 26 NNW 8 13 29.46 998 10 16 0.00 0.00
6:58 am 06:58 Sunny 50 10 22 -5.7 33 33 N 10 17 29.49 999 10 16 0.00 0.00
7:58 am 07:58 Sunny 52 11.1 28 -2.5 39 39 NE 6 9 29.54 1000 10 16 0.00 0.00
8:58 am 08:58 Sunny 53 11.5 33 0.6 47 47 SE 13 20 29.52 1000 10 16 0.00 0.00
9:58 am 09:58 Sunny 55 13 38 3.2 52 52 SE 16 26 29.51 999 10 16 0.00 0.00
10:17 am 10:17 Mostly Sunny 55 13 37 3 51 51 SSE 14 22 29.68 1005 10 16 0.00 0.00
10:37 am 10:37 Partly Cloudy 57 14 36 2 44 44 E 14 22 29.65 1004 10 16 0.00 0.00
10:49 am 10:49 Partly Cloudy 57 14 37 3 48 48 SSE 15 24 29.68 1005 10 16 0.00 0.00
10:58 am 10:58 Partly Cloudy 57 13.9 36 2.4 46 46 ESE 14 22 29.51 999 10 16 0.00 0.00
11:58 am 11:58 Mostly Sunny 59 14.9 33 0.8 39 39 SSE 17 28 29.51 999 10 16 0.00 0.00
12:58 pm 12:58 Mostly Cloudy 59 15.2 29 -1.4 32 32 SE 15 24 29.50 999 10 16 0.00 0.00
1:14 pm 13:14 Mostly Sunny 63 17 30 -1 30 30 S 14 22 29.59 1002 10 16 0.00 0.00
1:58 pm 13:58 Partly Cloudy 62 16.4 27 -2.8 27 27 ESE 14 22 29.49 999 10 16 0.00 0.00
2:58 pm 14:58 Mostly Cloudy 64 18 24 -4.4 22 22 SE 25 41 29.45 997 10 16 0.00 0.00
3:59 pm 15:59 Mostly Cloudy 64 17.8 20 -6.4 19 19 SSE 15 24 29.46 998 10 16 0.00 0.00
4:19 pm 16:19 Mostly Cloudy 64 18 18 -8 16 16 S 15 24 29.53 1000 10 16 0.00 0.00
4:27 pm 16:27 Mostly Cloudy 64 18 19 -7 18 18 ESE 16 26 29.53 1000 10 16 0.00 0.00
4:38 pm 16:38 Mostly Cloudy 66 19 19 -7 17 17 SSE 25 41 29.50 999 10 16 0.00 0.00
4:58 pm 16:58 Partly Cloudy 64 17.5 19 -7.4 18 18 S 15 24 29.48 998 10 16 0.00 0.00
5:58 pm 17:58 Mostly Cloudy 62 16.5 28 -2.5 27 27 ESE 9 15 29.52 1000 10 16 0.00 0.00
6:58 pm 18:58 Mostly Cloudy 60 15.5 29 -1.4 32 32 NNE 12 19 29.54 1000 10 16 0.00 0.00
7:58 pm 19:58 Mostly Cloudy 56 13.4 33 0.7 42 42 NNW 6 9 29.60 1002 10 16 0.00 0.00
8:58 pm 20:58 Mostly Cloudy 54 12.3 34 0.9 46 46 SSW 10 17 29.64 1004 10 16 0.00 0.00
9:58 pm 21:58 Mostly Cloudy 55 12.5 33 0.6 44 44 W 3 6 29.63 1004 10 16 0.00 0.00
10:42 pm 22:42 Mostly Cloudy with Light Rain 54 12 34 1 47 47 NW 5 7 29.83 1010 10 16 0.00 0.00
10:57 pm 22:57 Mostly Cloudy 52 11 34 1 50 50 NNW 7 11 29.83 1010 10 16 0.00 0.00
10:58 pm 22:58 Mostly Cloudy 53 11.4 34 1.3 50 50 NNW 7 11 29.65 1004 10 16 0.00 0.00
11:58 pm 23:58 Mostly Cloudy 51 10.4 28 -2.1 42 42 Calm 29.66 1005 10 16 0.00 0.00

Powered by AerisWeather